カタログに戻る

LEMUR 2 LIA-MARTIN

運用中科学SSO
NORAD 63248·PAYLOAD·🇺🇸 United States

打ち上げ Mar 15, 2025 から Vandenberg Space Force Base

Loading…

次のパス (今後24時間)

TLE

最新Source: Space-Track

元期: Sep 14, 2026, 12:12 UTC

1 63248U 25052AQ  26257.50853347  .00003816  00000-0  32450-3 0  9999
2 63248  97.6736 148.5364 0001604 218.6708 141.4400 14.98425051 82055

AllMySatでLEMUR 2 LIA-MARTINをリアルタイム追跡

Download on the App Store